{"data":{"norad_id":44741,"intl_designator":"2019-074AE","name":"STARLINK-1036","alt_names":[],"object_type":"PAYLOAD","status":"ACTIVE","operator":null,"country":"US","launch_date":"2019-11-11","launch_site_code":"AFETR","launch_vehicle":null,"mission":null,"orbit_class":"UNKNOWN","rcs_meters":null,"size_class":null,"mass_kg":null,"dimensions":null,"purposes":["comms"],"wikipedia_slug":null,"has_3d_model":false,"image_url":null,"decayed_at":null,"tle_current":{"epoch":"2026-09-20T06:00:02.000160Z","epoch_age_seconds":35932,"freshness":"FRESH","line1":"1 44741U 19074AE  26263.25002315  .00121203  16570-4  37613-3 0  9993","line2":"2 44741  53.0367 302.8937 0006318   9.5061 115.9914 15.91468337  5920","mean_motion":15.91468337,"eccentricity":0.0006318,"inclination_deg":53.0367,"raan_deg":302.8937,"arg_perigee_deg":9.5061,"mean_anomaly_deg":115.9914,"bstar":0.00037613,"rev_number":592,"period_min":90.482478760116,"perigee_km":293.95509612649,"apogee_km":302.39128168119,"semimajor_km":6676.3101889038,"source":"CELESTRAK","updated_at":"2026-09-20T09:00:38.218876Z"}}}